Dumas, Arkansas, United States (71639)
Lat: 33.89N, Lon: 91.49W
Wx Zone: ARZ065
Local Info
Past Weather Observations for Friday, March 27, 2015

NOTE: This archive is for the closest National Weather Service station to Dumas. Information may differ from the station used for current weather conditions.

Click here for Long-term Archive

Time Weather Temperature Dewpoint Humidity Pressure Winds Precip Visibility
23:53
Mostly Cloudy
43°F / 6°C 37°F / 3°C 81% 30.18 in
(1022 mb)
Calm - 10SM
22:53
Mostly Cloudy
43°F / 6°C 37°F / 3°C 81% 30.18 in
(1022 mb)
Calm - 10SM
21:53
Clear
41°F / 5°C 37°F / 3°C 87% 30.18 in
(1022 mb)
Calm - 10SM
20:53
Clear
43°F / 6°C 37°F / 3°C 81% 30.15 in
(1021 mb)
Calm - 10SM
19:53
Clear
46°F / 8°C 39°F / 4°C 76% 30.15 in
(1021 mb)
Calm - 10SM
18:53
Clear
48°F / 9°C 37°F / 3°C 66% 30.12 in
(1020 mb)
Calm - 10SM
17:53
Partly Cloudy
52°F / 11°C 37°F / 3°C 58% 30.12 in
(1020 mb)
NE 5.8 mph
(NE 9 kph)
- 10SM
16:53
Partly Cloudy
55°F / 13°C 36°F / 2°C 47% 30.12 in
(1020 mb)
N 6.9 mph
(N 11 kph)
- 10SM
15:53
Partly Cloudy
55°F / 13°C 37°F / 3°C 51% 30.12 in
(1020 mb)
N 9.2 mph
(N 15 kph)
- 10SM
14:53
Mostly Cloudy
55°F / 13°C 37°F / 3°C 51% 30.09 in
(1019 mb)
N 10.4 mph
(N 17 kph)
- 10SM
13:53
Mostly Cloudy
57°F / 14°C 37°F / 3°C 48% 30.09 in
(1019 mb)
NNW 8.1 mph
(NNW 13 kph)
- 10SM
12:53
Mostly Cloudy
57°F / 14°C 39°F / 4°C 51% 30.09 in
(1019 mb)
NE 10.4 mph
(NE 17 kph)
- 10SM
11:53
Overcast
57°F / 14°C 37°F / 3°C 48% 30.09 in
(1019 mb)
Variable 5.8 mph
(Variable 9 kph)
- 10SM
10:53
Overcast
54°F / 12°C 37°F / 3°C 54% 30.09 in
(1019 mb)
Calm - 10SM
09:53
Mostly Cloudy
52°F / 11°C 39°F / 4°C 62% 30.09 in
(1019 mb)
SSE 6.9 mph
(SSE 11 kph)
- 10SM
08:53
Mostly Cloudy
50°F / 10°C 39°F / 4°C 67% 30.09 in
(1019 mb)
SSE 5.8 mph
(SSE 9 kph)
- 10SM
07:53
Mostly Cloudy
46°F / 8°C 43°F / 6°C 87% 30.09 in
(1019 mb)
SE 3.5 mph
(SE 6 kph)
- 10SM
06:53
Clear
39°F / 4°C 37°F / 3°C 93% 30.09 in
(1019 mb)
Calm - 10SM
05:53
Clear
36°F / 2°C 36°F / 2°C 100% 30.09 in
(1019 mb)
Calm - 10SM
04:53
Mostly Cloudy
37°F / 3°C 36°F / 2°C 93% 30.06 in
(1018 mb)
Calm - 10SM
03:53
Partly Cloudy
37°F / 3°C 36°F / 2°C 93% 30.06 in
(1018 mb)
Calm - 10SM
02:53
Clear
37°F / 3°C 36°F / 2°C 93% 30.04 in
(1017 mb)
Calm - 10SM
01:53
Clear
39°F / 4°C 37°F / 3°C 93% 30.06 in
(1018 mb)
Calm - 10SM
00:53
Clear
39°F / 4°C 37°F / 3°C 93% 30.06 in
(1018 mb)
Calm - 10SM
Time Weather Temperature Dewpoint Humidity Pressure Winds Precip Visibility


Weather for websites

WeatherForYou.com, LLC is not responsible for any damages or problems caused by this service. Current weather conditions are obtained from the closest station including government and personal stations which may have varying degrees of accuracy. Weather forecasts are derived from the NOAA NDFD. Like all things, this site belongs to Jesus Christ... He just trusts me to maintain it. If you have any questions or comments email webmaster@weatherforyou.com

Copyright © 2015, WeatherForYou.com LLC. All rights reserved.